Theta_e
312 313 312 312 311 308 304 303 308 319 309 300 296 295 301 304 306 308 308 305 304 302 303 301 300 305 310 317 315 307 308 302 298 302 308 310 305 301 302 294 291 294 292 292
312 312 312 312 311 309 303 302 305 320 308 294 294 299 304 307 305 307 307 306 307 308 305 300 308 311 316 316 314 307 307 300 293 296 300 305 302 305 303 300 297 293 291 293
312 312 312 312 311 309 304 309 310 313 307 300 302 303 310 303 310 308 311 310 310 307 306 307 306 310 314 316 316 319 311 301 298 294 297 302 301 304 305 299 293 294 295 297
313 312 312 312 311 309 304 313 310 312 304 308 311 309 310 305 307 311 311 308 309 306 303 305 305 309 310 314 316 311 305 298 302 303 307 307 306 306 306 301 301 297 300 300
313 312 312 312 311 309 304 300 306 306 308 312 312 304 307 309 312 309 306 306 312 309 304 306 304 308 305 306 309 305 306 297 302 301 306 304 303 306 308 309 307 305 304 302
313 312 312 313 312 307 297 300 305 308 305 310 308 307 310 312 313 314 315 311 310 308 311 313 310 311 310 309 305 306 306 302 298 294 302 302 299 304 306 307 307 306 300 302
312 312 312 313 312 309 301 301 302 304 305 311 312 315 317 315 316 311 315 314 309 314 318 315 311 311 312 311 309 310 302 300 299 295 299 289 302 313 312 309 310 311 306 304
312 312 312 313 313 312 305 302 303 303 302 312 317 319 318 314 312 311 313 315 315 316 312 303 299 299 301 304 308 307 306 302 299 292 292 299 306 309 310 306 305 307 309 304
312 312 313 313 313 312 307 302 304 303 306 308 321 317 316 310 309 309 312 316 316 314 306 301 292 292 297 297 301 308 308 306 301 299 294 292 304 312 315 314 299 308 304 302
312 312 313 313 313 313 308 303 304 305 305 315 318 314 311 315 312 307 308 311 312 310 303 299 295 295 302 296 296 296 298 297 296 296 296 300 310 314 315 299 300 309 308 306
311 312 313 313 313 313 308 303 305 303 302 307 316 323 317 316 313 307 309 304 306 306 302 299 298 296 301 299 301 298 296 293 292 295 293 291 315 313 305 307 306 307 304 302
311 311 312 313 313 313 311 299 305 307 300 304 314 318 322 325 322 314 312 307 309 310 305 302 301 300 301 300 295 303 296 300 296 298 298 306 311 310 310 308 303 304 303 303
311 311 311 312 313 313 310 301 301 304 304 305 312 316 321 323 321 325 313 309 312 314 313 307 306 305 304 299 298 299 304 307 302 302 307 312 312 312 305 305 303 305 305 305
310 311 311 312 312 312 311 301 302 300 297 297 307 324 318 327 322 323 322 316 320 319 317 310 306 304 307 300 303 302 305 305 303 305 309 310 309 308 306 308 307 306 306 306
310 311 311 312 312 311 308 305 303 305 301 300 305 311 316 319 321 322 322 318 315 315 309 309 310 308 307 306 306 302 307 305 301 300 307 304 306 310 311 309 308 310 309 308
310 311 311 311 311 309 302 296 305 306 304 302 302 313 315 318 318 318 318 318 315 315 311 308 308 312 305 302 301 307 309 309 311 312 315 314 313 310 310 309 310 311 310 310
310 310 310 310 309 303 297 295 309 306 304 306 307 308 314 316 319 316 316 316 314 314 311 309 308 307 308 301 296 306 310 312 315 318 314 306 308 305 309 311 312 312 312 313
309 309 309 309 308 306 300 303 306 307 301 300 303 307 305 312 311 311 316 312 314 314 310 309 308 309 306 299 305 309 313 315 315 311 308 306 307 308 309 310 308 304 303 302
309 309 309 304 302 297 300 313 310 307 301 301 306 303 298 312 313 314 315 315 308 312 307 306 307 305 303 305 307 311 314 311 307 310 310 307 304 304 304 303 303 301 300 300
309 304 300 299 304 312 313 310 305 300 301 309 304 308 306 310 311 311 312 313 309 302 304 308 304 302 306 308 311 309 311 314 309 304 303 303 302 301 300 300 301 298 297 296
300 297 299 304 309 310 308 307 303 303 302 305 306 307 304 310 306 307 310 304 303 298 302 303 299 302 305 308 307 308 307 307 306 305 303 301 300 298 298 298 298 294 293 292
301 300 301 302 305 307 303 303 307 306 305 308 308 309 309 308 310 308 308 304 304 300 309 304 298 306 307 307 306 306 307 307 304 303 300 299 298 297 297 297 297 294 292 292
301 300 299 304 304 294 300 299 302 303 306 308 308 306 307 308 310 306 307 304 300 308 300 298 303 307 307 306 304 302 302 301 301 301 299 297 294 293 293 292 295 297 293 289
296 299 290 299 299 302 302 304 302 307 309 308 308 309 308 308 306 305 303 303 306 299 297 299 301 302 303 303 300 298 296 296 296 297 296 294 289 288 289 289 289 288 287 286
298 301 293 301 305 306 307 308 306 308 311 310 309 310 311 309 307 306 303 302 299 299 299 299 301 302 302 299 298 296 295 294 294 295 292 290 288 286 286 287 287 286 286 284
301 302 303 307 303 302 306 306 306 311 310 310 312 309 306 304 304 300 298 297 296 297 298 299 300 300 300 298 298 295 295 294 293 291 288 287 286 285 284 285 284 284 284 283
304 304 309 308 307 305 307 308 308 314 309 306 309 304 302 304 299 298 300 297 297 298 298 299 299 299 298 299 297 295 293 290 288 286 285 284 284 284 283 281 282 282 282 283
Wind_Speed
22 24 25 26 25 28 8 4 3 4 3 5 1 2 4 5 7 5 9 5 5 2 2 0 3 1 4 7 3 2 3 4 4 8 2 5 3 4 5 5 4 2 3 9
21 23 24 25 23 18 5 3 3 3 5 2 3 6 6 6 5 6 1 6 5 4 5 4 3 1 4 4 1 5 3 1 3 10 7 1 4 5 3 6 4 6 5 8
21 22 24 25 25 22 3 2 4 5 5 0 3 4 5 6 5 3 6 3 3 5 4 5 2 2 3 1 1 1 5 4 8 8 8 4 4 6 6 6 4 4 7 6
20 21 22 24 27 22 1 3 1 1 4 4 4 2 2 4 6 5 5 5 4 4 3 2 2 3 3 3 5 4 3 5 5 5 7 6 5 7 7 8 6 5 5 8
19 19 20 22 26 24 4 3 4 5 3 5 5 1 2 4 6 5 4 7 2 4 4 5 5 3 2 3 2 2 4 3 3 4 4 4 6 7 10 10 9 6 5 10
18 18 19 19 21 15 4 3 3 2 4 4 3 2 3 5 6 5 3 8 4 5 1 2 3 5 5 3 3 2 3 3 4 6 4 7 3 5 5 2 2 4 3 2
18 17 17 16 14 8 1 3 1 2 4 1 2 4 5 7 5 3 3 3 5 1 9 7 3 6 5 6 4 3 1 2 2 5 6 3 1 5 5 2 3 3 4 3
17 16 16 15 13 9 2 2 1 1 4 3 5 9 5 5 5 6 5 5 3 8 5 4 5 6 7 5 4 5 1 3 1 2 3 5 1 6 6 6 6 10 3 5
17 16 16 15 14 12 2 3 2 1 1 5 2 4 3 2 3 4 3 3 3 7 4 4 3 0 2 5 7 3 5 2 1 1 3 4 5 1 2 3 8 12 3 5
18 17 16 15 14 12 3 4 2 1 2 5 1 1 2 2 3 2 4 5 6 4 3 3 3 3 2 3 3 3 3 3 1 2 1 6 5 5 4 5 7 4 2 5
17 17 16 15 13 12 5 5 3 1 3 8 5 4 3 2 1 0 4 5 5 4 4 3 2 3 4 2 2 0 1 1 2 1 2 3 3 3 0 4 1 1 2 2
16 16 16 15 12 9 5 3 2 1 3 8 3 12 16 11 11 3 2 4 4 5 5 1 3 3 1 2 3 2 1 5 3 6 5 3 5 3 4 3 2 2 4 4
16 15 16 16 13 8 2 3 3 2 3 7 3 6 4 4 13 10 4 3 4 3 5 5 3 4 5 4 5 2 3 3 3 0 2 4 6 5 4 4 1 2 4 5
16 15 15 15 13 9 5 3 2 1 2 3 9 2 7 6 7 7 6 2 2 5 3 3 3 2 3 2 3 3 3 2 3 3 2 1 5 6 6 12 10 9 7 4
16 16 15 14 13 13 9 7 5 6 3 4 7 11 7 6 9 10 8 6 3 3 1 3 3 3 4 1 1 2 3 2 1 2 6 4 4 5 8 11 6 9 11 13
16 17 16 14 11 12 4 5 1 5 4 1 5 6 6 1 5 7 7 5 3 3 4 3 1 3 4 4 2 1 3 2 3 2 4 1 3 5 8 9 8 11 13 10
15 16 15 14 9 1 3 4 1 3 1 2 5 6 6 1 4 2 3 1 2 2 3 0 2 1 4 3 2 4 3 3 4 2 1 2 5 5 7 10 10 13 13 14
15 16 17 15 12 10 8 8 19 9 2 1 3 6 6 3 1 3 2 3 3 5 2 1 3 3 3 4 3 3 2 6 10 9 8 6 7 11 11 9 9 14 14 12
15 17 21 5 2 3 6 2 10 7 3 3 3 3 5 4 2 2 3 3 3 3 2 1 4 3 4 2 2 3 3 4 8 9 13 12 14 11 11 11 13 14 11 10
13 5 2 4 5 8 6 4 3 3 5 4 4 2 5 3 1 1 3 2 3 2 3 2 4 2 5 6 0 4 4 2 9 6 7 9 10 11 11 12 11 10 9 9
2 2 4 4 9 3 3 3 4 3 4 5 6 11 11 2 3 4 4 4 3 3 3 4 2 3 3 6 13 14 16 17 15 13 13 11 9 8 9 10 9 9 9 9
2 5 5 4 3 1 3 5 3 5 7 4 5 6 8 4 4 4 2 4 2 3 4 4 2 4 7 8 14 13 12 15 12 11 13 11 10 9 8 7 6 7 7 6
2 2 4 3 3 1 6 7 4 3 4 3 1 3 4 1 1 3 4 4 3 5 4 2 2 10 7 9 9 12 11 12 10 12 13 14 12 11 9 7 6 6 9 7
3 4 5 6 5 6 6 5 5 5 3 2 1 3 3 1 2 2 4 1 3 4 3 3 3 6 10 10 9 10 10 9 10 10 11 12 10 9 9 8 8 8 6 5
5 3 6 8 5 3 3 1 0 2 1 0 1 2 2 3 4 3 4 4 3 3 3 3 5 8 8 9 9 8 7 8 8 8 10 9 7 6 6 6 5 5 3 4
4 6 4 4 1 3 1 2 1 1 0 1 3 2 4 3 2 5 4 3 2 3 4 5 7 9 8 7 6 8 6 5 7 8 7 6 5 5 4 5 5 2 3 4
5 5 3 1 2 3 2 3 2 3 2 2 3 4 3 3 4 3 4 3 4 6 6 5 6 8 6 4 5 7 7 6 5 5 5 4 4 5 5 4 5 3 4 4
Wind_Direction
338 337 338 340 345 344 37 347 53 322 18 51 49 164 223 285 279 307 241 194 180 128 130 3 325 359 345 343 308 21 32 133 222 229 184 157 177 203 158 133 258 236 176 269
339 336 338 338 344 1 319 11 275 310 77 89 341 297 282 248 318 295 62 36 69 36 33 88 75 230 220 344 360 178 178 290 341 335 355 35 204 181 158 116 132 201 161 266
340 337 339 338 339 349 144 13 11 333 41 93 118 342 288 330 291 284 46 129 91 92 48 10 140 235 259 122 240 28 103 174 187 217 216 175 238 213 188 157 150 190 222 271
340 339 339 341 338 347 177 18 342 173 329 319 357 240 286 297 341 352 53 29 24 119 58 20 279 225 275 187 40 26 121 231 197 252 253 237 237 243 223 202 215 181 247 218
338 338 339 344 343 343 59 54 14 347 279 303 322 10 334 310 330 5 327 122 148 101 133 195 238 240 191 291 42 12 7 291 342 271 191 291 265 258 248 242 229 247 277 264
335 337 341 346 355 352 31 325 332 96 274 330 360 315 294 287 312 331 29 146 100 55 4 114 99 94 98 109 106 40 24 4 8 271 328 297 224 347 17 344 348 193 180 257
332 334 338 344 358 32 204 261 85 17 286 323 292 292 286 282 285 140 308 46 91 25 109 100 63 44 65 63 76 118 105 112 112 284 323 254 288 5 47 318 332 14 76 14
328 331 333 336 346 357 334 290 123 112 288 279 305 334 316 340 359 44 4 3 33 140 54 68 28 352 5 326 39 67 153 119 63 24 300 299 282 5 29 34 326 329 283 95
324 326 329 330 340 346 314 257 212 158 345 256 322 325 332 328 328 337 298 3 49 70 76 63 82 293 278 314 352 67 100 74 140 110 349 338 258 35 92 86 3 339 77 112
322 323 325 326 337 343 330 280 241 91 264 273 197 257 263 312 8 255 301 345 18 58 62 81 132 246 232 308 316 355 19 356 346 109 173 259 265 148 180 92 223 290 66 130
316 319 320 322 332 342 5 275 242 72 271 278 234 243 221 339 86 184 286 36 352 44 61 110 187 192 233 290 270 106 183 110 273 35 260 347 69 83 90 226 297 108 49 72
309 312 315 318 325 337 1 298 321 26 208 254 286 251 245 223 224 143 287 201 181 185 94 154 119 226 167 181 298 12 324 187 197 166 238 255 283 266 269 184 130 98 125 167
304 306 310 313 316 323 328 272 285 327 286 294 322 256 250 209 213 192 171 266 184 176 175 154 172 240 136 170 237 185 263 179 236 339 294 309 311 291 320 53 360 158 164 184
299 302 305 308 309 310 291 235 219 92 267 275 283 318 280 229 159 178 189 219 56 94 106 138 156 200 136 196 181 167 206 11 288 271 322 311 32 36 42 30 4 10 38 22
297 300 305 308 312 311 290 234 209 217 166 254 283 304 257 212 175 181 182 204 173 135 124 138 222 153 113 355 75 169 157 202 104 307 325 78 326 325 55 55 26 47 46 34
294 301 306 309 313 330 331 327 133 205 182 292 304 283 283 151 188 169 196 186 157 132 154 212 221 324 99 117 149 346 171 220 227 143 323 66 275 18 72 82 51 51 55 32
293 298 299 299 296 303 223 214 126 87 349 257 299 292 269 278 147 113 132 84 106 101 80 239 177 45 77 98 117 288 266 242 210 252 212 96 28 65 41 57 56 52 46 39
296 298 298 293 281 270 278 242 229 195 281 272 264 269 338 347 27 72 3 60 29 20 144 86 89 29 38 64 295 306 218 93 29 31 49 86 83 61 49 58 67 63 56 46
298 302 296 300 161 215 242 275 114 169 165 270 207 242 263 352 27 89 42 64 44 296 74 36 79 351 54 275 255 263 281 76 92 82 77 74 72 68 58 55 58 66 54 51
304 298 326 277 213 231 120 271 80 125 221 241 235 238 260 79 352 37 97 50 204 142 245 71 68 91 295 316 102 54 35 190 119 93 76 74 73 72 62 58 65 64 55 44
119 238 240 283 305 123 208 228 168 181 232 212 226 212 235 233 162 219 202 176 163 134 233 115 82 115 39 43 71 71 72 67 73 85 83 76 78 84 80 73 70 61 59 51
263 270 288 288 288 204 217 205 211 181 218 215 191 220 191 233 141 144 197 165 134 163 159 83 61 98 85 83 82 70 68 88 85 86 87 79 71 65 74 80 82 78 69 51
312 237 255 170 237 182 198 202 235 223 221 235 243 242 166 128 142 117 145 148 166 111 56 96 88 119 101 85 85 72 70 74 77 86 85 82 70 53 43 39 27 51 79 32
232 222 274 196 211 230 196 200 203 236 207 274 177 243 201 344 97 120 121 115 125 90 119 119 93 95 104 103 96 91 82 80 81 86 94 89 73 58 46 47 69 73 67 17
241 205 231 221 231 259 248 276 218 290 297 143 77 56 68 0 77 19 110 70 83 59 83 81 85 78 87 83 72 77 90 83 93 88 90 89 76 73 57 41 72 81 59 23
236 235 267 251 78 300 234 235 209 295 306 43 54 71 55 61 37 45 30 86 97 83 77 92 90 80 66 76 71 93 95 78 89 100 98 90 83 83 68 53 56 6 10 335
244 248 244 264 238 237 314 33 4 292 57 79 75 63 55 52 63 72 24 45 93 104 94 83 83 108 121 153 138 99 99 86 103 108 99 96 79 65 56 36 335 346 324 282